Location: Aalen
(48.8330°N, 10.1000°E)
Time: 19:03:48
(UTC+02:00)

Transit 4A - Pass Details

Date: 10 August 2021
Orbit: 871 x 974 km, 66.8° (Epoch: 16 September)

Event Time Altitude Azimuth Distance (km) Brightness Sun altitude
Rises 00:07:36 0° 227° (SW) 3,478 - -23.3°
Reaches altitude 10° 00:10:08 10° 232° (SW) 2,532 - -23.5°
Exits shadow 00:10:10 10° 232° (SW) 2,521 10.0 -23.5°
Maximum altitude 00:15:53 58° 311° (NW) 1,014 8.3 -23.8°
Drops below altitude 10° 00:21:38 10° 31° (NNE) 2,529 10.7 -24.1°
Sets 00:24:11 0° 35° (NE) 3,473 11.4 -24.2°
